Location: Black Skies Observatory
(44.7549°N, 79.7179°W)
Time: 14:56:13
(UTC-05:00)

Envisat - Pass Details

Date: 07 November 2020
Orbit: 764 x 766 km, 98.1° (Epoch: 01 December)

Event Time Altitude Azimuth Distance (km) Brightness Sun altitude
Rises 18:06:59 0° 190° (S) 3,218 6.5 -12.4°
Reaches altitude 10° 18:09:29 10° 200° (SSW) 2,297 5.9 -12.8°
Maximum altitude 18:14:03 33° 264° (W) 1,263 4.9 -13.6°
Drops below altitude 10° 18:18:38 10° 329° (NNW) 2,312 5.8 -14.4°
Sets 18:21:10 0° 338° (NNW) 3,242 6.4 -14.9°
